Location: Bazugues
(43.4465°N, 0.3432°E)
Time: 09:21:15
(UTC+00:00)

USA 215 - Pass Details

Date: 12 January 2026
Orbit: 1098 x 1109 km, 123.0° (Epoch: 10 January)

Event Time Altitude Azimuth Distance (km) Brightness Sun altitude
Exits shadow 18:10:45 19° 55° (NE) 2,361 4.4 -15.3°
Maximum altitude 18:15:41 73° 137° (SE) 1,150 3.3 -16.1°
Drops below altitude 10° 18:22:11 10° 222° (SW) 2,948 6.3 -17.3°
Sets 18:24:40 0° 224° (SW) 3,902 7.1 -17.7°
